Hourly Weather Hossegor

Today, 22 April, Thursday

Time Temperature Precipitation Wind Pressure Humidity
00:00 +12°C° 0 mm 3 mps 759 mmHg 80%
01:00 +11°C° 0 mm 3 mps 759 mmHg 82%
02:00 +11°C° 0 mm 3 mps 759 mmHg 83%
03:00 +10°C° 0 mm 3 mps 759 mmHg 85%
04:00 +10°C° 0 mm 3 mps 759 mmHg 86%
05:00 +10°C° 0 mm 3 mps 759 mmHg 87%
06:00 +10°C° 0 mm 3 mps 759 mmHg 88%
07:00 +12°C° 0 mm 3 mps 760 mmHg 79%
08:00 +14°C° 0 mm 3 mps 760 mmHg 69%
09:00 +17°C° 0 mm 3 mps 760 mmHg 60%
10:00 +19°C° 0 mm 2 mps 760 mmHg 54%
11:00 +20°C° 0 mm 2 mps 760 mmHg 49%
12:00 +23°C° 0 mm 2 mps 761 mmHg 43%
13:00 +23°C° 0 mm 2 mps 760 mmHg 44%
14:00 +23°C° 0 mm 2 mps 760 mmHg 45%
15:00 +21°C° 0 mm 2 mps 760 mmHg 46%
16:00 +20°C° 0 mm 2 mps 761 mmHg 52%
17:00 +20°C° 0 mm 1 mps 761 mmHg 58%
18:00 +19°C° 0 mm 1 mps 761 mmHg 64%
19:00 +16°C° 0 mm 1 mps 762 mmHg 68%
20:00 +15°C° 0 mm 2 mps 762 mmHg 72%
21:00 +14°C° 0 mm 2 mps 762 mmHg 76%
22:00 +14°C° 0 mm 2 mps 762 mmHg 79%
23:00 +13°C° 0 mm 2 mps 763 mmHg 82%

Tomorrow, 23 April, Friday

Time Temperature Precipitation Wind Pressure Humidity
00:00 +12°C° 0 mm 2 mps 763 mmHg 85%
01:00 +10°C° 0 mm 2 mps 762 mmHg 86%
02:00 +10°C° 0 mm 2 mps 762 mmHg 87%
03:00 +9°C° 0 mm 3 mps 762 mmHg 88%
04:00 +10°C° 0 mm 3 mps 762 mmHg 88%
05:00 +10°C° 0 mm 3 mps 762 mmHg 87%
06:00 +10°C° 0 mm 3 mps 762 mmHg 86%
07:00 +13°C° 0 mm 3 mps 762 mmHg 75%
08:00 +17°C° 0 mm 3 mps 762 mmHg 64%
09:00 +20°C° 0 mm 3 mps 762 mmHg 52%
10:00 +21°C° 0 mm 3 mps 762 mmHg 47%
11:00 +24°C° 0 mm 2 mps 762 mmHg 42%
12:00 +25°C° 0 mm 2 mps 762 mmHg 37%
13:00 +25°C° 0 mm 2 mps 762 mmHg 36%
14:00 +26°C° 0 mm 2 mps 761 mmHg 35%
15:00 +26°C° 0 mm 2 mps 761 mmHg 34%
16:00 +25°C° 0 mm 2 mps 761 mmHg 41%
17:00 +23°C° 0 mm 2 mps 761 mmHg 48%
18:00 +21°C° 0 mm 2 mps 761 mmHg 55%
19:00 +20°C° 0 mm 3 mps 761 mmHg 58%
20:00 +18°C° 0 mm 3 mps 762 mmHg 61%
21:00 +17°C° 0 mm 3 mps 762 mmHg 64%
22:00 +16°C° 0 mm 2 mps 762 mmHg 65%
23:00 +15°C° 0 mm 2 mps 762 mmHg 66%

Day after tomorrow, 24 April, Saturday

Time Temperature Precipitation Wind Pressure Humidity
00:00 +14°C° 0 mm 2 mps 761 mmHg 67%
01:00 +14°C° 0 mm 2 mps 761 mmHg 68%
02:00 +13°C° 0 mm 2 mps 761 mmHg 69%
03:00 +13°C° 0 mm 2 mps 761 mmHg 69%
04:00 +13°C° 0 mm 2 mps 761 mmHg 70%
05:00 +12°C° 0 mm 2 mps 761 mmHg 70%
06:00 +12°C° 0 mm 2 mps 762 mmHg 71%
07:00 +15°C° 0 mm 2 mps 761 mmHg 61%
08:00 +18°C° 0 mm 2 mps 761 mmHg 52%
09:00 +21°C° 0 mm 2 mps 761 mmHg 43%
10:00 +24°C° 0 mm 1 mps 761 mmHg 38%
11:00 +25°C° 0 mm 1 mps 761 mmHg 34%
12:00 +27°C° 0 mm 1 mps 761 mmHg 30%
13:00 +27°C° 0 mm 1 mps 760 mmHg 29%
14:00 +27°C° 0 mm 2 mps 760 mmHg 28%
15:00 +28°C° 0 mm 2 mps 760 mmHg 28%
16:00 +26°C° 0 mm 2 mps 760 mmHg 36%
17:00 +24°C° 0 mm 2 mps 760 mmHg 45%
18:00 +21°C° 0 mm 2 mps 760 mmHg 53%
19:00 +20°C° 0 mm 2 mps 760 mmHg 56%
20:00 +19°C° 0 mm 2 mps 760 mmHg 59%
21:00 +18°C° 0 mm 2 mps 760 mmHg 61%
22:00 +17°C° 0 mm 2 mps 760 mmHg 62%
23:00 +17°C° 0 mm 2 mps 760 mmHg 62%

25 April, Sunday

Time Temperature Precipitation Wind Pressure Humidity
00:00 +16°C° 0 mm 2 mps 760 mmHg 63%
01:00 +16°C° 0 mm 2 mps 760 mmHg 63%
02:00 +15°C° 0 mm 2 mps 760 mmHg 63%
03:00 +15°C° 0 mm 2 mps 759 mmHg 63%
04:00 +15°C° 0 mm 2 mps 759 mmHg 64%
05:00 +15°C° 0 mm 2 mps 759 mmHg 64%
06:00 +15°C° 0 mm 2 mps 759 mmHg 65%
07:00 +16°C° 0 mm 2 mps 759 mmHg 62%
08:00 +18°C° 0 mm 1 mps 759 mmHg 60%
09:00 +19°C° 0 mm 1 mps 759 mmHg 57%
10:00 +20°C° 0 mm 1 mps 759 mmHg 54%
11:00 +22°C° 0 mm 1 mps 759 mmHg 51%
12:00 +23°C° 0 mm 2 mps 758 mmHg 48%
13:00 +22°C° 0 mm 1 mps 758 mmHg 52%
14:00 +22°C° 0 mm 1 mps 758 mmHg 56%
15:00 +21°C° 0 mm 1 mps 757 mmHg 60%
16:00 +20°C° 0 mm 2 mps 757 mmHg 62%
17:00 +20°C° 0 mm 2 mps 757 mmHg 64%
18:00 +19°C° 0 mm 3 mps 756 mmHg 67%
19:00 +19°C° 0 mm 3 mps 756 mmHg 68%
20:00 +18°C° 0 mm 3 mps 756 mmHg 70%
21:00 +17°C° 0 mm 3 mps 756 mmHg 71%
22:00 +17°C° 0 mm 3 mps 756 mmHg 73%
23:00 +16°C° 0 mm 2 mps 756 mmHg 75%

26 April, Monday

Time Temperature Precipitation Wind Pressure Humidity
00:00 +15°C° 0 mm 2 mps 756 mmHg 77%
01:00 +15°C° 0.1 mm 2 mps 755 mmHg 80%
02:00 +14°C° 0.1 mm 2 mps 755 mmHg 83%
03:00 +14°C° 0.1 mm 2 mps 755 mmHg 86%
04:00 +14°C° 0 mm 2 mps 755 mmHg 87%
05:00 +14°C° 0 mm 2 mps 755 mmHg 88%
06:00 +13°C° 0 mm 2 mps 755 mmHg 88%
07:00 +14°C° 0.3 mm 1 mps 755 mmHg 86%
08:00 +14°C° 0.3 mm 1 mps 755 mmHg 84%
09:00 +15°C° 0.3 mm 1 mps 754 mmHg 82%
10:00 +15°C° 1 mm 1 mps 754 mmHg 84%
11:00 +14°C° 1 mm 1 mps 754 mmHg 86%
12:00 +14°C° 1 mm 1 mps 754 mmHg 89%
13:00 +14°C° 1.2 mm 1 mps 754 mmHg 91%
14:00 +14°C° 1.2 mm 1 mps 753 mmHg 93%
15:00 +14°C° 1.2 mm 1 mps 753 mmHg 95%
16:00 +14°C° 1 mm 2 mps 753 mmHg 95%
17:00 +14°C° 1 mm 2 mps 753 mmHg 95%
18:00 +13°C° 1 mm 2 mps 753 mmHg 95%
19:00 +13°C° 0.2 mm 2 mps 754 mmHg 95%
20:00 +12°C° 0.2 mm 3 mps 754 mmHg 95%
21:00 +12°C° 0.2 mm 3 mps 754 mmHg 95%
22:00 +12°C° 0 mm 3 mps 754 mmHg 95%
23:00 +12°C° 0 mm 4 mps 754 mmHg 95%

27 April, Tuesday

Time Temperature Precipitation Wind Pressure Humidity
00:00 +12°C° 0 mm 4 mps 754 mmHg 94%
01:00 +12°C° 0 mm 4 mps 754 mmHg 94%
02:00 +12°C° 0 mm 5 mps 753 mmHg 94%
03:00 +12°C° 0 mm 5 mps 753 mmHg 94%
04:00 +12°C° 0.4 mm 5 mps 753 mmHg 95%
05:00 +12°C° 0.4 mm 5 mps 753 mmHg 95%
06:00 +13°C° 0.4 mm 5 mps 753 mmHg 96%
07:00 +13°C° 0.4 mm 5 mps 753 mmHg 93%
08:00 +14°C° 0.4 mm 4 mps 754 mmHg 91%
09:00 +14°C° 0.4 mm 4 mps 754 mmHg 88%
10:00 +15°C° 0.2 mm 4 mps 754 mmHg 83%
11:00 +15°C° 0.2 mm 5 mps 754 mmHg 78%
12:00 +15°C° 0.2 mm 5 mps 754 mmHg 73%
13:00 +15°C° 0.1 mm 6 mps 755 mmHg 69%
14:00 +15°C° 0.1 mm 6 mps 755 mmHg 66%
15:00 +15°C° 0.1 mm 6 mps 755 mmHg 62%
16:00 +14°C° 0 mm 6 mps 755 mmHg 65%
17:00 +13°C° 0 mm 6 mps 756 mmHg 69%
18:00 +12°C° 0 mm 5 mps 756 mmHg 72%
19:00 +10°C° 0 mm 5 mps 756 mmHg 75%
20:00 +9°C° 0 mm 5 mps 757 mmHg 77%
21:00 +8°C° 0 mm 4 mps 757 mmHg 80%
22:00 +8°C° 0.2 mm 4 mps 757 mmHg 83%
23:00 +8°C° 0.2 mm 5 mps 757 mmHg 86%
Show more

We Need Your Consent

Meteoprog and our Service Providers may store and access personal data such as cookies, device identifiers or other similar technologies on your device and process such data to personalise content and ads, as well as provide social media features and to analyse the traffic.

  • Store and/or access information on your device

    Cookies, device identifiers or other information can be stored or accessed on your device for the purposes indicated above.

  • Personalised ads and content, ad and content measurement, audience insights, and products development

    Ads and content can be personalised based on a profile. More data can be added to better personalise ads and content. Ad and content performance can be measured. Insights about the audience who saw the ads and content can be derived. Such data can be used to develop or improve user’s experience, systems and software.

By clicking ‘I Agree’ you will allow the use of indicated cookies, device identifiers, web beacons or other similar technologies. Your settings can be changed in the browser on your device.

For certain purposes, legitimate interests may be relied on, rather than consent. You can read more about this in our Privacy and Cookie Policy.